Location: ??????
(55.0357°N, 38.6195°E)
Time: 19:34:50
(UTC+00:00)

Meteor 2-10 - Visible Passes

Search period start: 12 July 2024 00:00
Search period end: 22 July 2024 00:00
Orbit: 736 x 867 km, 81.2° (Epoch: 12 July)

Date Brightness Start Highest point End Pass type
(mag) Time Alt. Az. Time Alt. Az. Time Alt. Az.
15 Jul 6.5 00:12:35 10° SE 00:16:04 19° E 00:19:31 10° NE visible
15 Jul 6.6 23:47:20 10° ESE 23:49:48 14° E 23:52:15 10° NE visible
19 Jul 5.7 00:07:10 10° SSE 00:11:30 29° E 00:15:48 10° NNE visible
19 Jul 6.1 23:41:22 10° SE 23:45:09 22° E 23:48:55 10° NE visible
20 Jul 6.4 23:15:54 10° ESE 23:18:51 16° E 23:21:49 10° NE visible
21 Jul 6.6 22:51:05 10° E 22:52:37 11° ENE 22:54:08 10° ENE visible
